CAPE
1409 1536 1578 1921 1830 135 0 0 0 0 0 0 0 0 0 0 0 0 0 0 0 0 23 42 37 48 59 69 51 30 18 0 0 0 0 0 0 0 0 0 0 0 0
1506 1607 1498 1649 1549 736 0 0 3 15 0 0 0 0 0 0 0 0 0 0 0 0 38 44 61 50 36 50 62 56 41 29 42 0 0 0 0 0 0 0 0 0 0
1560 1553 1684 1453 1427 989 95 18 18 72 0 0 0 0 0 0 0 0 0 0 0 0 27 40 50 58 27 6 0 20 59 66 74 45 0 0 0 0 0 0 0 0 0
1473 1547 1667 1578 1460 1108 398 59 80 13 0 0 0 0 0 0 0 0 0 0 0 0 24 49 29 16 5 5 0 0 25 29 49 37 4 0 1 0 0 0 0 0 0
1412 1366 1540 1602 1521 1289 811 142 119 6 0 2 0 0 0 0 0 0 0 0 0 32 38 19 0 0 22 27 16 31 0 17 37 19 1 0 0 0 0 0 0 0 0
1391 1323 1347 1407 1528 1391 621 294 266 199 141 38 23 1 1 0 0 0 0 5 26 33 10 0 0 2 6 2 23 63 88 82 91 38 0 1 0 1 0 0 3 3 4
1412 1380 1345 1328 1371 1069 154 46 576 561 363 113 43 12 5 13 19 12 23 22 18 19 18 0 5 0 12 3 0 4 34 53 93 178 3 5 8 0 7 13 10 9 11
1443 1449 1424 1415 1313 1058 292 10 369 475 104 64 86 97 37 94 139 113 144 66 45 32 25 15 11 4 5 0 0 6 11 17 6 0 0 0 1 6 12 7 12 0 13
1412 1490 1495 1432 1415 899 280 18 121 508 250 147 153 156 119 152 195 243 85 98 30 26 24 0 0 1 1 0 0 0 0 0 0 0 0 0 0 0 0 0 0 0 17
1315 1428 1504 1560 1515 965 557 99 65 359 444 237 256 134 160 206 273 124 122 38 38 0 0 0 0 0 0 0 0 0 0 0 0 0 0 0 0 0 0 0 22 13 0
1188 1337 1559 1478 1605 1052 436 264 236 390 459 238 87 18 31 24 83 182 79 74 30 0 0 0 0 0 0 0 0 4 0 0 0 0 0 0 0 0 0 0 7 0 0
1220 1455 1411 1322 1300 759 441 346 397 356 241 67 32 33 5 1 123 70 108 64 45 18 9 0 0 0 0 0 2 0 0 0 0 0 0 0 0 0 0 2 1 0 9
1405 1384 1152 1090 865 536 413 273 190 34 29 20 72 48 55 168 97 93 130 99 64 33 0 0 0 0 0 1 8 0 0 0 0 0 0 0 0 0 0 0 0 0 3
1105 902 855 767 571 414 278 148 89 30 0 17 91 139 185 100 81 116 93 53 7 0 0 0 0 0 0 14 1 4 0 0 0 0 0 0 0 0 0 0 0 0 0
597 575 527 591 506 341 217 175 3 1 64 132 147 156 142 99 46 26 6 0 0 0 0 0 0 0 4 7 0 0 0 0 0 0 0 0 0 0 0 0 1 0 0
212 134 136 152 150 63 13 51 11 87 133 136 146 116 74 18 9 0 0 0 0 0 0 0 0 5 2 0 0 0 0 0 0 0 0 0 0 0 0 0 1 0 0
63 57 38 20 1 3 0 0 0 9 198 175 75 37 0 5 0 0 0 0 0 0 0 0 0 0 0 0 0 0 0 0 0 0 0 0 0 0 0 0 0 22 0
0 5 38 31 12 0 6 16 123 140 78 16 16 0 0 0 0 0 0 0 0 0 0 0 0 0 0 0 0 0 0 0 0 0 0 0 0 0 0 0 8 6 0
0 3 1 22 105 178 160 113 170 110 28 19 6 0 0 0 0 0 0 0 0 0 0 0 0 0 0 0 0 0 0 0 0 0 0 0 0 0 0 0 11 28 27
207 198 200 171 118 138 183 133 110 72 52 38 7 3 0 0 0 0 0 0 0 0 0 0 0 0 0 0 0 0 0 0 0 0 0 0 0 0 0 0 0 6 3
121 55 52 67 127 108 76 80 65 54 39 11 9 0 0 0 0 1 6 3 0 0 0 0 0 0 0 0 0 0 0 0 0 0 0 0 0 0 0 0 0 0 0
29 12 62 136 144 95 95 87 65 44 24 1 0 0 0 4 1 1 0 0 0 0 0 0 0 0 0 0 0 0 0 0 0 0 0 0 0 0 0 0 0 0 0
90 71 48 24 23 59 116 97 51 33 6 0 0 13 29 28 4 0 0 0 0 0 0 0 0 0 0 0 0 0 0 0 0 0 0 0 0 0 0 0 0 0 0
64 34 22 0 22 55 83 70 10 0 2 4 15 35 30 34 3 0 0 0 0 0 0 0 0 0 0 0 0 0 0 0 0 0 0 0 0 0 0 0 0 0 0
31 0 0 0 0 0 3 8 0 3 21 38 7 20 44 33 8 0 0 0 0 0 0 0 0 0 0 0 0 0 0 0 0 0 0 0 0 0 0 0 0 0 0
0 0 0 0 0 0 5 8 1 0 0 0 1 15 18 14 9 0 0 0 0 0 0 0 0 0 0 0 0 0 0 0 0 0 0 0 0 0 0 0 0 0 0
CIN
-231 -164 -147 -112 -60 -137 -0 -0 -0 -0 -0 -0 -0 -0 -0 -0 -0 -0 -0 -0 -0 -0 -6 -6 -9 -11 -17 -16 -10 -6 -5 -0 -0 -0 -0 -0 -0 -0 -0 -0 -0 -0 -0
-238 -159 -124 -95 -80 -91 -0 -0 -271 -259 -4 -0 -0 -0 -0 -0 -0 -0 -0 -0 -0 -0 -95 -20 -53 -22 -20 -23 -19 -10 -8 -5 -2 -0 -0 -0 -0 -0 -0 -0 -0 -0 -0
-270 -184 -127 -108 -76 -95 -65 -22 -197 -21 -0 -0 -0 -0 -0 -0 -0 -0 -0 -0 -0 -0 -133 -14 -61 -21 -28 -16 -0 -20 -13 -12 -7 -4 -0 -0 -0 -0 -0 -0 -0 -0 -0
-273 -217 -132 -115 -103 -88 -61 -23 -21 -17 -0 -0 -0 -0 -0 -0 -0 -0 -0 -0 -0 -0 -17 -28 -46 -57 -65 -40 -0 -0 -97 -38 -23 -19 -7 -0 -0 -0 -0 -0 -0 -0 -0
-288 -250 -190 -144 -107 -95 -61 -35 -51 -98 -0 -158 -0 -0 -0 -0 -0 -0 -0 -0 -0 -202 -142 -186 -0 -0 -113 -138 -83 -59 -0 -44 -25 -21 -35 -0 -0 -0 -0 -0 -0 -0 -0
-313 -268 -225 -153 -103 -88 -37 -35 -7 -145 -121 -168 -179 -93 -39 -0 -0 -0 -0 -55 -170 -157 -155 -0 -0 -4 -2 -48 -135 -87 -64 -107 -83 -30 -0 -0 -0 -0 -0 -0 -0 -0 -0
-301 -273 -237 -173 -65 -36 -1 -38 -26 -87 -103 -171 -146 -133 -144 -119 -123 -59 -30 -189 -28 -23 -16 -1 -11 -0 -1 -2 -0 -168 -120 -40 -50 -8 -0 -0 -0 -0 -0 -0 -0 -1 -2
-309 -256 -201 -163 -93 -48 -22 -156 -49 -49 -110 -138 -106 -98 -111 -80 -60 -24 -14 -12 -49 -38 -34 -18 -16 -4 -4 -0 -0 -99 -56 -41 -15 -0 -0 -0 -0 -0 -0 -0 -0 -0 -8
-286 -238 -194 -165 -79 -62 -30 -246 -13 -24 -61 -54 -52 -68 -56 -63 -58 -41 -30 -55 -47 -72 -49 -0 -0 -1 -5 -0 -0 -0 -10 -0 -0 -0 -0 -0 -0 -0 -0 -0 -0 -0 -1
-288 -235 -165 -94 -33 -53 -30 -23 -74 -37 -26 -39 -28 -59 -36 -22 -18 -31 -19 -90 -93 -0 -0 -0 -0 -0 -0 -0 -0 -0 -0 -0 -0 -0 -0 -0 -0 -0 -0 -0 -14 -0 -0
-258 -146 -71 -65 -19 -32 -40 -37 -61 -41 -29 -52 -23 -105 -351 -152 -39 -25 -19 -81 -81 -0 -0 -0 -0 -0 -0 -0 -11 -45 -0 -0 -0 -0 -0 -0 -0 -0 -0 -0 -0 -0 -0
-150 -69 -74 -76 -45 -71 -90 -76 -45 -32 -16 -6 -155 -46 -7 -8 -22 -35 -82 -68 -43 -13 -20 -0 -0 -0 -0 -0 -0 -0 -0 -0 -0 -0 -0 -0 -0 -0 -0 -2 -0 -0 -0
-72 -88 -77 -42 -61 -88 -88 -57 -30 -7 -4 -251 -214 -237 -152 -25 -29 -100 -64 -40 -19 -29 -0 -0 -0 -0 -0 -2 -1 -0 -0 -0 -0 -0 -0 -0 -0 -0 -0 -0 -0 -0 -0
-93 -97 -80 -42 -65 -54 -50 -37 -20 -17 -41 -254 -124 -79 -42 -29 -82 -60 -52 -29 -18 -0 -0 -0 -0 -0 -0 -4 -1 -0 -0 -0 -0 -0 -0 -0 -0 -0 -0 -0 -0 -0 -0
-156 -144 -119 -52 -63 -68 -52 -26 -0 -81 -123 -22 -61 -45 -33 -24 -61 -47 -19 -0 -0 -0 -0 -0 -0 -0 -5 -0 -0 -0 -0 -0 -0 -0 -0 -0 -0 -0 -0 -0 -0 -0 -0
-230 -235 -167 -73 -45 -59 -67 -33 -16 -114 -81 -60 -60 -13 -12 -12 -9 -0 -0 -0 -0 -0 -0 -0 -0 -3 -0 -0 -0 -0 -0 -0 -0 -0 -0 -0 -0 -0 -0 -0 -0 -0 -0
-57 -70 -77 -26 -0 -74 -0 -0 -0 -64 -30 -48 -45 -8 -0 -22 -0 -0 -0 -0 -0 -0 -0 -0 -0 -0 -0 -0 -0 -0 -0 -0 -0 -0 -0 -0 -0 -0 -0 -0 -0 -5 -0
-0 -13 -18 -134 -145 -0 -180 -175 -81 -32 -16 -10 -13 -0 -0 -0 -0 -0 -0 -0 -0 -0 -0 -0 -0 -0 -0 -0 -0 -0 -0 -0 -0 -0 -0 -0 -0 -0 -0 -0 -0 -0 -0
-0 -26 -75 -121 -55 -45 -51 -35 -69 -34 -18 -18 -20 -0 -0 -0 -0 -0 -0 -0 -0 -0 -0 -0 -0 -0 -0 -0 -0 -0 -0 -0 -0 -0 -0 -0 -0 -0 -0 -1 -0 -0 -0
-85 -78 -47 -45 -44 -54 -55 -57 -53 -45 -35 -33 -58 -60 -0 -0 -0 -0 -0 -0 -0 -0 -0 -0 -0 -0 -0 -0 -0 -0 -0 -0 -0 -0 -0 -0 -0 -0 -0 -0 -0 -5 -10
-63 -103 -85 -66 -57 -58 -59 -55 -48 -48 -39 -46 -67 -0 -0 -0 -0 -0 -0 -5 -0 -0 -0 -0 -0 -0 -0 -0 -0 -0 -0 -0 -0 -0 -0 -0 -0 -0 -0 -0 -0 -0 -0
-12 -69 -81 -69 -58 -54 -37 -41 -33 -7 -12 -4 -0 -0 -0 -13 -1 -1 -0 -0 -0 -0 -0 -0 -0 -0 -0 -0 -0 -0 -0 -0 -0 -0 -0 -0 -0 -0 -0 -0 -0 -0 -0
-40 -49 -53 -43 -37 -43 -23 -14 -20 -16 -20 -0 -0 -4 -5 -6 -4 -0 -0 -0 -0 -0 -0 -0 -0 -0 -0 -0 -0 -0 -0 -0 -0 -0 -0 -0 -0 -0 -0 -0 -0 -0 -0
-10 -12 -9 -0 -32 -8 -8 -11 -12 -1 -4 -8 -3 -1 -4 -10 -0 -0 -0 -0 -0 -0 -0 -0 -0 -0 -0 -0 -0 -0 -0 -0 -0 -0 -0 -0 -0 -0 -0 -0 -0 -0 -0
-18 -0 -0 -0 -0 -0 -10 -7 -0 -5 -9 -3 -2 -17 -2 -4 -8 -0 -0 -0 -0 -0 -0 -0 -0 -0 -0 -0 -0 -0 -0 -0 -0 -0 -0 -0 -0 -0 -0 -0 -0 -0 -0
-0 -0 -0 -0 -0 -0 -20 -15 -5 -0 -0 -0 -6 -15 -15 -13 -9 -0 -0 -0 -0 -0 -0 -0 -0 -0 -0 -0 -0 -0 -0 -0 -0 -0 -0 -0 -0 -0 -0 -0 -0 -0 -0
Wind_Speed
27 30 35 35 37 38 nan nan nan nan nan nan nan nan nan nan nan nan nan nan nan nan nan nan nan nan nan nan nan nan nan nan nan nan nan nan nan nan nan nan nan nan nan
29 30 33 34 35 37 nan nan nan nan nan nan nan nan nan nan nan nan nan nan nan nan nan nan nan nan nan nan nan nan nan nan nan nan nan nan nan nan nan nan nan nan nan
32 35 35 39 36 39 nan nan nan nan nan nan nan nan nan nan nan nan nan nan nan nan nan nan nan nan nan nan nan nan nan nan nan nan nan nan nan nan nan nan nan nan nan
38 39 39 41 40 38 36 nan nan nan nan nan nan nan nan nan nan nan nan nan nan nan nan nan nan nan nan nan nan nan nan nan nan nan nan nan nan nan nan nan nan nan nan
36 40 42 44 48 45 45 34 35 nan nan nan nan nan nan nan nan nan nan nan nan nan nan nan nan nan nan nan nan nan nan nan nan nan nan nan nan nan nan nan nan nan nan
35 39 41 48 46 52 35 38 29 42 42 nan nan nan nan nan nan nan nan nan nan nan nan nan nan nan nan nan nan nan nan nan nan nan nan nan nan nan nan nan nan nan nan
39 36 43 48 47 46 54 nan 21 35 41 42 nan nan nan nan nan nan nan nan nan nan nan nan nan nan nan nan nan nan nan nan nan 32 nan nan nan nan nan nan nan nan nan
42 40 48 49 56 53 42 nan 40 30 36 nan nan nan nan nan 52 34 32 nan nan nan nan nan nan nan nan nan nan nan nan nan nan nan nan nan nan nan nan nan nan nan nan
44 45 49 51 53 51 50 nan 37 32 40 42 32 45 50 38 53 40 nan nan nan nan nan nan nan nan nan nan nan nan nan nan nan nan nan nan nan nan nan nan nan nan nan
50 45 54 51 50 40 43 nan nan 47 51 43 46 48 41 37 35 35 39 nan nan nan nan nan nan nan nan nan nan nan nan nan nan nan nan nan nan nan nan nan nan nan nan
59 48 42 44 45 48 46 45 54 55 52 51 nan nan nan nan nan 24 nan nan nan nan nan nan nan nan nan nan nan nan nan nan nan nan nan nan nan nan nan nan nan nan nan
55 52 55 53 52 51 53 47 50 48 49 nan nan nan nan nan 42 nan 34 nan nan nan nan nan nan nan nan nan nan nan nan nan nan nan nan nan nan nan nan nan nan nan nan
59 59 61 55 45 42 50 44 45 nan nan nan nan nan nan 52 nan nan 38 nan nan nan nan nan nan nan nan nan nan nan nan nan nan nan nan nan nan nan nan nan nan nan nan
64 57 53 49 38 38 38 40 nan nan nan nan nan 52 47 46 nan 33 nan nan nan nan nan nan nan nan nan nan nan nan nan nan nan nan nan nan nan nan nan nan nan nan nan
62 50 40 38 41 42 41 39 nan nan nan 46 42 45 44 nan nan nan nan nan nan nan nan nan nan nan nan nan nan nan nan nan nan nan nan nan nan nan nan nan nan nan nan
52 48 48 40 39 nan nan nan nan nan 49 46 35 44 nan nan nan nan nan nan nan nan nan nan nan nan nan nan nan nan nan nan nan nan nan nan nan nan nan nan nan nan nan
nan nan nan nan nan nan nan nan nan nan 54 46 nan nan nan nan nan nan nan nan nan nan nan nan nan nan nan nan nan nan nan nan nan nan nan nan nan nan nan nan nan nan nan
nan nan nan nan nan nan nan nan 49 46 nan nan nan nan nan nan nan nan nan nan nan nan nan nan nan nan nan nan nan nan nan nan nan nan nan nan nan nan nan nan nan nan nan
nan nan nan nan 50 48 50 49 49 48 nan nan nan nan nan nan nan nan nan nan nan nan nan nan nan nan nan nan nan nan nan nan nan nan nan nan nan nan nan nan nan nan nan
43 48 40 47 48 44 44 47 50 nan nan nan nan nan nan nan nan nan nan nan nan nan nan nan nan nan nan nan nan nan nan nan nan nan nan nan nan nan nan nan nan nan nan
40 nan nan nan 42 44 nan nan nan nan nan nan nan nan nan nan nan nan nan nan nan nan nan nan nan nan nan nan nan nan nan nan nan nan nan nan nan nan nan nan nan nan nan
nan nan nan 41 40 nan nan nan nan nan nan nan nan nan nan nan nan nan nan nan nan nan nan nan nan nan nan nan nan nan nan nan nan nan nan nan nan nan nan nan nan nan nan
nan nan nan nan nan nan 39 nan nan nan nan nan nan nan nan nan nan nan nan nan nan nan nan nan nan nan nan nan nan nan nan nan nan nan nan nan nan nan nan nan nan nan nan
nan nan nan nan nan nan nan nan nan nan nan nan nan nan nan nan nan nan nan nan nan nan nan nan nan nan nan nan nan nan nan nan nan nan nan nan nan nan nan nan nan nan nan
nan nan nan nan nan nan nan nan nan nan nan nan nan nan nan nan nan nan nan nan nan nan nan nan nan nan nan nan nan nan nan nan nan nan nan nan nan nan nan nan nan nan nan
nan nan nan nan nan nan nan nan nan nan nan nan nan nan nan nan nan nan nan nan nan nan nan nan nan nan nan nan nan nan nan nan nan nan nan nan nan nan nan nan nan nan nan
Wind_Direction
328 319 313 311 309 304 nan nan nan nan nan nan nan nan nan nan nan nan nan nan nan nan nan nan nan nan nan nan nan nan nan nan nan nan nan nan nan nan nan nan nan nan nan
347 341 307 318 303 310 nan nan nan nan nan nan nan nan nan nan nan nan nan nan nan nan nan nan nan nan nan nan nan nan nan nan nan nan nan nan nan nan nan nan nan nan nan
339 330 322 313 311 309 nan nan nan nan nan nan nan nan nan nan nan nan nan nan nan nan nan nan nan nan nan nan nan nan nan nan nan nan nan nan nan nan nan nan nan nan nan
329 323 320 316 314 298 305 nan nan nan nan nan nan nan nan nan nan nan nan nan nan nan nan nan nan nan nan nan nan nan nan nan nan nan nan nan nan nan nan nan nan nan nan
338 332 333 329 322 313 315 284 299 nan nan nan nan nan nan nan nan nan nan nan nan nan nan nan nan nan nan nan nan nan nan nan nan nan nan nan nan nan nan nan nan nan nan
334 335 326 320 317 299 283 295 299 298 308 nan nan nan nan nan nan nan nan nan nan nan nan nan nan nan nan nan nan nan nan nan nan nan nan nan nan nan nan nan nan nan nan
317 322 322 311 301 298 262 nan 310 305 297 309 nan nan nan nan nan nan nan nan nan nan nan nan nan nan nan nan nan nan nan nan nan 304 nan nan nan nan nan nan nan nan nan
311 312 311 310 309 305 300 nan 313 300 299 nan nan nan nan nan 299 296 305 nan nan nan nan nan nan nan nan nan nan nan nan nan nan nan nan nan nan nan nan nan nan nan nan
306 309 314 309 311 318 314 nan 307 302 289 292 291 317 319 278 296 291 nan nan nan nan nan nan nan nan nan nan nan nan nan nan nan nan nan nan nan nan nan nan nan nan nan
303 300 305 305 308 315 292 nan nan 294 292 295 297 315 334 280 281 293 293 nan nan nan nan nan nan nan nan nan nan nan nan nan nan nan nan nan nan nan nan nan nan nan nan
299 293 294 295 297 297 294 282 283 286 295 293 nan nan nan nan nan 325 nan nan nan nan nan nan nan nan nan nan nan nan nan nan nan nan nan nan nan nan nan nan nan nan nan
290 291 288 293 297 301 289 284 291 292 295 nan nan nan nan nan 309 nan 318 nan nan nan nan nan nan nan nan nan nan nan nan nan nan nan nan nan nan nan nan nan nan nan nan
288 288 286 294 301 309 298 282 297 nan nan nan nan nan nan 307 nan nan 300 nan nan nan nan nan nan nan nan nan nan nan nan nan nan nan nan nan nan nan nan nan nan nan nan
288 291 290 298 283 301 302 308 nan nan nan nan nan 302 303 312 nan 299 nan nan nan nan nan nan nan nan nan nan nan nan nan nan nan nan nan nan nan nan nan nan nan nan nan
290 298 298 292 298 298 303 309 nan nan nan 312 305 296 306 nan nan nan nan nan nan nan nan nan nan nan nan nan nan nan nan nan nan nan nan nan nan nan nan nan nan nan nan
293 296 292 285 291 nan nan nan nan nan 299 305 298 300 nan nan nan nan nan nan nan nan nan nan nan nan nan nan nan nan nan nan nan nan nan nan nan nan nan nan nan nan nan
nan nan nan nan nan nan nan nan nan nan 287 291 nan nan nan nan nan nan nan nan nan nan nan nan nan nan nan nan nan nan nan nan nan nan nan nan nan nan nan nan nan nan nan
nan nan nan nan nan nan nan nan 302 306 nan nan nan nan nan nan nan nan nan nan nan nan nan nan nan nan nan nan nan nan nan nan nan nan nan nan nan nan nan nan nan nan nan
nan nan nan nan 291 295 297 299 301 304 nan nan nan nan nan nan nan nan nan nan nan nan nan nan nan nan nan nan nan nan nan nan nan nan nan nan nan nan nan nan nan nan nan
284 284 285 288 289 295 300 303 302 nan nan nan nan nan nan nan nan nan nan nan nan nan nan nan nan nan nan nan nan nan nan nan nan nan nan nan nan nan nan nan nan nan nan
287 nan nan nan 294 297 nan nan nan nan nan nan nan nan nan nan nan nan nan nan nan nan nan nan nan nan nan nan nan nan nan nan nan nan nan nan nan nan nan nan nan nan nan
nan nan nan 288 288 nan nan nan nan nan nan nan nan nan nan nan nan nan nan nan nan nan nan nan nan nan nan nan nan nan nan nan nan nan nan nan nan nan nan nan nan nan nan
nan nan nan nan nan nan 295 nan nan nan nan nan nan nan nan nan nan nan nan nan nan nan nan nan nan nan nan nan nan nan nan nan nan nan nan nan nan nan nan nan nan nan nan
nan nan nan nan nan nan nan nan nan nan nan nan nan nan nan nan nan nan nan nan nan nan nan nan nan nan nan nan nan nan nan nan nan nan nan nan nan nan nan nan nan nan nan
nan nan nan nan nan nan nan nan nan nan nan nan nan nan nan nan nan nan nan nan nan nan nan nan nan nan nan nan nan nan nan nan nan nan nan nan nan nan nan nan nan nan nan
nan nan nan nan nan nan nan nan nan nan nan nan nan nan nan nan nan nan nan nan nan nan nan nan nan nan nan nan nan nan nan nan nan nan nan nan nan nan nan nan nan nan nan